Regional Weather Roundup
Issued by NWS Northern Indiana

Home | Current Version | Previous Version | Graphics & Text | Print | Product List | Glossary On
Versions: 1 2 3 4 5 6 7 8 9 10 11 12 13 14 15 16 17 18 19 20 21 22 23 24 25 26 27 28 29 30 31 32 33 34 35 36 37 38 39 40 41 42 43 44 45 46 47 48 49 50
000
ASUS43 KIWX 200510
RWRIWX

KIWX WEATHER ROUNDUP
NATIONAL WEATHER SERVICE NORTHERN INDIANA
1200 AM EST MON FEB 20 2017

NOTE: "FAIR" INDICATES FEW OR NO CLOUDS BELOW 12,000 FEET WITH NO
SIGNIFICANT WEATHER AND/OR OBSTRUCTIONS TO VISIBILITY.

* THESE STATIONS ARE NOT UNDER NWS QUALITY CONTROL. THEY ALSO MAY NOT
  REPORT WEATHER SUCH AS PRECIPITATION OR FOG.

INZ001>027-200600-
NORTHERN INDIANA

CITY           SKY/WX    TMP DP  RH WIND       PRES   REMARKS
GARY*          PTCLDY    42  37  82 SE3       30.13R
VALPARAISO     CLOUDY    43  35  73 CALM      30.14R
MICHIGAN CITY* PTCLDY    43  28  56 SE3       30.14R
LAPORTE*       CLOUDY    42  30  61 E5        30.14S
KNOX*          PTCLDY    36  18  48 CALM      30.13R
SOUTH BEND     PTCLDY    37  26  64 CALM      30.15R
GOSHEN         CLOUDY    38  30  73 CALM      30.15R
MONTICELLO*    CLEAR     43  40  90 CALM      30.13R
LOGANSPORT*    CLOUDY    39  37  93 SE3       30.15R
ROCHESTER*     CLOUDY    39  36  87 CALM      30.15R
WARSAW*        CLOUDY    36  34  93 CALM      30.15R
ANGOLA*        CLEAR     36  34  93 CALM      30.15S
FORT WAYNE     CLOUDY    39  33  79 CALM      30.15S
HUNTINGTON*    PTCLDY    39  36  89 CALM      30.15S
PERU/GRISSOM   CLEAR     45  45 100 S6        30.13R FOG
MARION*        CLOUDY    42  39  91 CALM      30.16R

$$
INZ028>050-200600-
CENTRAL INDIANA

CITY           SKY/WX    TMP DP  RH WIND       PRES   REMARKS
LAFAYETTE      CLEAR     43  40  89 CALM      30.14R
KOKOMO*        CLEAR     45  42  89 SE3       30.15R
MUNCIE*        CLOUDY    47  42  83 S3        30.15S
INDIANAPOLIS   CLEAR     48  45  89 S8        30.16R

$$
MIZ043>046-050>051-056>058-064>065-071>073-077>080-200600-
SOUTHWEST LOWER MICHIGAN

CITY           SKY/WX    TMP DP  RH WIND       PRES   REMARKS
BATTLE CREEK   CLOUDY    37  28  70 CALM      30.16R
BENTON HARBOR  CLOUDY    36  29  75 CALM      30.14R
COLDWATER*     CLOUDY    36  32  87 CALM      30.15S
HILLSDALE*     CLEAR     37  28  70 CALM      30.15R
HOLLAND        PTCLDY    35  30  82 E3        30.14S
GRAND RAPIDS   CLOUDY    36  27  69 E3        30.15R
KALAMAZOO      PTCLDY    38  25  59 CALM      30.15S
STURGIS*       CLOUDY    39  29  66 CALM      30.15R
THREE RIVERS*  FAIR      36  29  74 CALM      30.15R

$$
OHZ001>008-015>018-024>025-200600-
NORTHWEST OHIO

CITY           SKY/WX    TMP DP  RH WIND       PRES   REMARKS
WAUSEON*       FAIR      43  32  65 CALM      30.15R
DEFIANCE       PTCLDY    37  31  78 CALM      30.16R
FINDLAY        CLOUDY    43  32  65 CALM      30.14R
TOLEDO EXPRESS CLOUDY    39  32  76 E3        30.16R
TOLEDO METCALF CLEAR     45  35  68 E6        30.17R
LIMA           PTCLDY    44  40  85 S6        30.16R

$$
AND FOR LAKE MICHIGAN COASTAL AND OPEN LAKE BUOY OBSERVATIONS

STATION/POSITION TEMP    WIND        PRES    VSBY  WAVE
                 AIR SEA DIR/SP/G                  HT/PER
                 (F)     (DEG/KT/KT) (MB)    (MI)  (FT/S)
CALUMET HARBOR    42      CALM  /  2 1019.5R
MICHIGAN CITY     52     100/  8/  9   N/A
BURNS HARBOR      56     130/  6/ 10 1020.7

$$
&&




USA.gov is the U.S. government's official web portal to all federal, state and local government web resources and services.